Time,TemperatureF,DewpointF,PressureIn,WindDirection,WindDirectionDegrees,WindSpeedMPH,WindSpeedGustMPH,Humidity,HourlyPrecipIn,Conditions,Clouds,dailyrainin,SoftwareType,DateUTC
2013-04-17 00:00:00,34.2,16.9,29.92,South,180,0.7,1.8,49,0.00,,,0.00,WUHU216HW,2013-04-17 07:00:00,
2013-04-17 00:05:00,34.2,16.9,29.92,SSW,203,0.0,1.1,49,0.00,,,0.00,WUHU216HW,2013-04-17 07:05:00,
2013-04-17 00:10:00,34.2,16.9,29.92,West,270,0.9,0.9,49,0.00,,,0.00,WUHU216HW,2013-04-17 07:10:00,
2013-04-17 00:15:00,34.2,17.5,29.92,West,270,0.7,1.3,50,0.00,,,0.00,WUHU216HW,2013-04-17 07:15:00,
2013-04-17 00:20:00,34.4,17.6,29.92,West,270,0.7,1.3,50,0.00,,,0.00,WUHU216HW,2013-04-17 07:20:00,
2013-04-17 00:25:00,34.6,17.8,29.92,SSW,203,0.4,1.3,50,0.00,,,0.00,WUHU216HW,2013-04-17 07:25:00,
2013-04-17 00:30:00,34.6,17.8,29.92,West,270,2.5,3.4,50,0.00,,,0.00,WUHU216HW,2013-04-17 07:30:00,
2013-04-17 00:35:00,34.6,17.8,29.92,WSW,248,1.1,3.4,50,0.00,,,0.00,WUHU216HW,2013-04-17 07:35:00,
2013-04-17 00:40:00,34.6,17.8,29.92,SW,225,0.7,3.4,50,0.00,,,0.00,WUHU216HW,2013-04-17 07:40:00,
2013-04-17 00:45:00,34.6,17.8,29.92,WSW,248,1.8,3.1,50,0.00,,,0.00,WUHU216HW,2013-04-17 07:45:00,
2013-04-17 00:50:00,34.6,17.8,29.93,West,270,2.0,2.7,50,0.00,,,0.00,WUHU216HW,2013-04-17 07:50:00,
2013-04-17 00:55:00,34.2,17.9,29.93,NW,315,3.4,5.6,51,0.00,,,0.00,WUHU216HW,2013-04-17 07:55:00,
2013-04-17 01:00:00,34.2,17.5,29.93,SW,225,1.6,5.6,50,0.00,,,0.00,WUHU216HW,2013-04-17 08:00:00,
2013-04-17 01:05:00,34.0,17.7,29.93,SW,225,5.1,5.4,51,0.00,,,0.00,WUHU216HW,2013-04-17 08:05:00,
2013-04-17 01:10:00,34.0,18.2,29.93,WNW,293,3.4,5.4,52,0.00,,,0.00,WUHU216HW,2013-04-17 08:10:00,
2013-04-17 01:15:00,34.0,18.5,29.93,SSW,203,1.8,5.4,53,0.00,,,0.00,WUHU216HW,2013-04-17 08:15:00,
2013-04-17 01:20:00,34.0,19.0,29.93,WSW,248,1.1,6.0,54,0.00,,,0.00,WUHU216HW,2013-04-17 08:20:00,
2013-04-17 01:25:00,33.8,19.3,29.93,SW,225,1.3,6.0,55,0.00,,,0.00,WUHU216HW,2013-04-17 08:25:00,
2013-04-17 01:30:00,33.7,19.5,29.93,SW,225,5.8,6.3,56,0.00,,,0.00,WUHU216HW,2013-04-17 08:30:00,
2013-04-17 01:35:00,33.5,19.4,29.93,WSW,248,1.3,6.3,56,0.00,,,0.00,WUHU216HW,2013-04-17 08:35:00,
2013-04-17 01:40:00,33.5,19.4,29.93,West,270,2.2,5.8,56,0.00,,,0.00,WUHU216HW,2013-04-17 08:40:00,
2013-04-17 01:45:00,33.3,19.2,29.93,SSW,203,2.2,4.3,56,0.00,,,0.00,WUHU216HW,2013-04-17 08:45:00,
2013-04-17 01:50:00,33.3,19.2,29.93,West,270,4.7,4.7,56,0.00,,,0.00,WUHU216HW,2013-04-17 08:50:00,
2013-04-17 01:55:00,33.1,19.9,29.93,West,270,3.6,5.4,58,0.00,,,0.00,WUHU216HW,2013-04-17 08:55:00,
2013-04-17 02:00:00,33.1,19.9,29.92,West,270,0.4,5.4,58,0.00,,,0.00,WUHU216HW,2013-04-17 09:00:00,
2013-04-17 02:05:00,32.9,21.0,29.92,West,270,3.6,5.4,61,0.00,,,0.00,WUHU216HW,2013-04-17 09:05:00,
2013-04-17 02:10:00,32.9,20.2,29.93,West,270,1.3,6.9,59,0.00,,,0.00,WUHU216HW,2013-04-17 09:10:00,
2013-04-17 02:15:00,32.9,19.7,29.93,SW,225,3.6,6.9,58,0.00,,,0.00,WUHU216HW,2013-04-17 09:15:00,
2013-04-17 02:20:00,32.9,19.7,29.92,NW,315,0.4,5.6,58,0.00,,,0.00,WUHU216HW,2013-04-17 09:20:00,
2013-04-17 02:25:00,32.9,19.7,29.92,WNW,293,2.9,5.1,58,0.00,,,0.00,WUHU216HW,2013-04-17 09:25:00,
2013-04-17 02:30:00,33.1,19.9,29.92,WSW,248,2.0,5.6,58,0.00,,,0.00,WUHU216HW,2013-04-17 09:30:00,
2013-04-17 02:35:00,33.1,19.9,29.92,NNW,338,2.7,5.6,58,0.00,,,0.00,WUHU216HW,2013-04-17 09:35:00,
2013-04-17 02:40:00,33.1,19.9,29.92,WNW,293,3.4,5.1,58,0.00,,,0.00,WUHU216HW,2013-04-17 09:40:00,
2013-04-17 02:45:00,33.3,19.6,29.92,West,270,3.8,6.3,57,0.00,,,0.00,WUHU216HW,2013-04-17 09:45:00,
2013-04-17 02:50:00,33.5,19.8,29.92,WNW,293,5.1,7.2,57,0.00,,,0.00,WUHU216HW,2013-04-17 09:50:00,
2013-04-17 02:55:00,33.5,19.4,29.92,WSW,248,1.3,7.2,56,0.00,,,0.00,WUHU216HW,2013-04-17 09:55:00,
2013-04-17 03:00:00,33.5,19.8,29.92,WSW,248,3.4,8.1,57,0.00,,,0.00,WUHU216HW,2013-04-17 10:00:00,
2013-04-17 03:05:00,33.3,19.6,29.92,West,270,1.3,8.1,57,0.00,,,0.00,WUHU216HW,2013-04-17 10:05:00,
2013-04-17 03:10:00,33.3,19.6,29.92,WNW,293,4.0,7.6,57,0.00,,,0.00,WUHU216HW,2013-04-17 10:10:00,
2013-04-17 03:15:00,32.9,19.4,29.91,SW,225,3.6,7.6,57,0.00,,,0.00,WUHU216HW,2013-04-17 10:15:00,
2013-04-17 03:20:00,32.8,19.2,29.91,SW,225,5.8,6.5,57,0.00,,,0.00,WUHU216HW,2013-04-17 10:20:00,
2013-04-17 03:25:00,32.6,19.5,29.92,West,270,2.9,9.4,58,0.00,,,0.00,WUHU216HW,2013-04-17 10:25:00,
2013-04-17 03:30:00,32.4,19.3,29.92,WSW,248,3.8,9.4,58,0.00,,,0.00,WUHU216HW,2013-04-17 10:30:00,
2013-04-17 03:35:00,32.0,19.4,29.92,SW,225,5.4,11.4,59,0.00,,,0.00,WUHU216HW,2013-04-17 10:35:00,
2013-04-17 03:40:00,32.0,19.4,29.92,West,270,2.7,11.4,59,0.00,,,0.00,WUHU216HW,2013-04-17 10:40:00,
2013-04-17 03:45:00,32.0,19.8,29.92,SSW,203,3.4,9.8,60,0.00,,,0.00,WUHU216HW,2013-04-17 10:45:00,
2013-04-17 03:50:00,31.9,19.6,29.92,WSW,248,3.4,9.8,60,0.00,,,0.00,WUHU216HW,2013-04-17 10:50:00,
2013-04-17 03:55:00,31.9,20.0,29.92,SW,225,3.8,8.3,61,0.00,,,0.00,WUHU216HW,2013-04-17 10:55:00,
2013-04-17 04:00:00,31.9,20.0,29.92,West,270,6.0,8.3,61,0.00,,,0.00,WUHU216HW,2013-04-17 11:00:00,
2013-04-17 04:05:00,32.0,20.2,29.92,SSW,203,4.0,8.5,61,0.00,,,0.00,WUHU216HW,2013-04-17 11:05:00,
2013-04-17 04:10:00,32.0,20.2,29.92,SSW,203,7.8,8.5,61,0.00,,,0.00,WUHU216HW,2013-04-17 11:10:00,
2013-04-17 04:15:00,32.0,20.2,29.92,South,180,5.1,8.5,61,0.00,,,0.00,WUHU216HW,2013-04-17 11:15:00,
2013-04-17 04:20:00,32.0,20.5,29.91,SW,225,3.4,8.3,62,0.00,,,0.00,WUHU216HW,2013-04-17 11:20:00,
2013-04-17 04:25:00,32.0,20.2,29.91,SW,225,2.5,6.3,61,0.00,,,0.00,WUHU216HW,2013-04-17 11:25:00,
2013-04-17 04:30:00,31.9,20.3,29.91,WSW,248,5.4,6.9,62,0.00,,,0.00,WUHU216HW,2013-04-17 11:30:00,
2013-04-17 04:35:00,31.7,20.2,29.92,West,270,5.1,9.2,62,0.00,,,0.00,WUHU216HW,2013-04-17 11:35:00,
2013-04-17 04:40:00,31.7,20.2,29.92,West,270,2.7,9.2,62,0.00,,,0.00,WUHU216HW,2013-04-17 11:40:00,
2013-04-17 04:45:00,31.3,20.2,29.91,SW,225,8.5,9.2,63,0.00,,,0.00,WUHU216HW,2013-04-17 11:45:00,
2013-04-17 04:50:00,31.3,19.8,29.91,West,270,8.1,11.4,62,0.00,,,0.00,WUHU216HW,2013-04-17 11:50:00,
2013-04-17 04:55:00,31.1,19.6,29.91,West,270,4.3,11.4,62,0.00,,,0.00,WUHU216HW,2013-04-17 11:55:00,
2013-04-17 05:00:00,31.1,19.6,29.91,WSW,248,4.3,10.7,62,0.00,,,0.00,WUHU216HW,2013-04-17 12:00:00,
2013-04-17 05:05:00,31.0,19.1,29.92,WSW,248,3.1,7.6,61,0.00,,,0.00,WUHU216HW,2013-04-17 12:05:00,
2013-04-17 05:10:00,31.0,19.1,29.92,WSW,248,3.8,6.9,61,0.00,,,0.00,WUHU216HW,2013-04-17 12:10:00,
2013-04-17 05:15:00,30.8,18.9,29.91,West,270,5.8,6.9,61,0.00,,,0.00,WUHU216HW,2013-04-17 12:15:00,
2013-04-17 05:20:00,30.6,19.1,29.92,West,270,3.8,7.6,62,0.00,,,0.00,WUHU216HW,2013-04-17 12:20:00,
2013-04-17 05:25:00,30.6,19.1,29.92,SW,225,2.0,7.6,62,0.00,,,0.00,WUHU216HW,2013-04-17 12:25:00,
2013-04-17 05:30:00,30.6,18.7,29.92,WSW,248,2.5,6.3,61,0.00,,,0.00,WUHU216HW,2013-04-17 12:30:00,
2013-04-17 05:35:00,30.6,18.7,29.92,SW,225,1.8,7.6,61,0.00,,,0.00,WUHU216HW,2013-04-17 12:35:00,
2013-04-17 05:40:00,30.6,18.7,29.92,SW,225,2.9,7.6,61,0.00,,,0.00,WUHU216HW,2013-04-17 12:40:00,
2013-04-17 05:45:00,30.8,19.3,29.93,West,270,2.2,8.1,62,0.00,,,0.00,WUHU216HW,2013-04-17 12:45:00,
2013-04-17 05:50:00,31.0,19.1,29.92,WSW,248,2.2,8.1,61,0.00,,,0.00,WUHU216HW,2013-04-17 12:50:00,
2013-04-17 05:55:00,31.0,19.1,29.92,West,270,3.4,8.1,61,0.00,,,0.00,WUHU216HW,2013-04-17 12:55:00,
2013-04-17 06:00:00,31.0,19.1,29.92,SW,225,1.3,4.9,61,0.00,,,0.00,WUHU216HW,2013-04-17 13:00:00,
2013-04-17 06:05:00,31.1,19.3,29.93,WSW,248,2.0,4.7,61,0.00,,,0.00,WUHU216HW,2013-04-17 13:05:00,
2013-04-17 06:10:00,31.1,18.9,29.92,South,180,4.0,4.0,60,0.00,,,0.00,WUHU216HW,2013-04-17 13:10:00,
2013-04-17 06:15:00,31.1,18.9,29.93,South,180,3.1,4.0,60,0.00,,,0.00,WUHU216HW,2013-04-17 13:15:00,
2013-04-17 06:20:00,31.1,19.3,29.93,SSW,203,2.0,4.0,61,0.00,,,0.00,WUHU216HW,2013-04-17 13:20:00,
2013-04-17 06:25:00,31.1,19.3,29.93,SW,225,1.8,3.1,61,0.00,,,0.00,WUHU216HW,2013-04-17 13:25:00,
2013-04-17 06:30:00,31.0,19.1,29.93,WSW,248,1.6,3.1,61,0.00,,,0.00,WUHU216HW,2013-04-17 13:30:00,
2013-04-17 06:35:00,30.8,18.9,29.93,SSW,203,3.8,4.0,61,0.00,,,0.00,WUHU216HW,2013-04-17 13:35:00,
2013-04-17 06:40:00,30.8,18.9,29.93,SW,225,0.2,4.0,61,0.00,,,0.00,WUHU216HW,2013-04-17 13:40:00,
2013-04-17 06:45:00,31.0,19.4,29.93,WSW,248,3.6,4.7,62,0.00,,,0.00,WUHU216HW,2013-04-17 13:45:00,
2013-04-17 06:50:00,31.3,19.8,29.94,SW,225,3.1,7.6,62,0.00,,,0.00,WUHU216HW,2013-04-17 13:50:00,
2013-04-17 06:55:00,31.9,20.3,29.94,WSW,248,3.6,7.6,62,0.00,,,0.00,WUHU216HW,2013-04-17 13:55:00,
2013-04-17 07:00:00,32.6,20.6,29.94,SW,225,2.5,6.9,61,0.00,,,0.00,WUHU216HW,2013-04-17 14:00:00,
2013-04-17 07:05:00,33.3,20.5,29.94,West,270,6.7,12.1,59,0.00,,,0.00,WUHU216HW,2013-04-17 14:05:00,
2013-04-17 07:10:00,33.8,20.2,29.94,WSW,248,6.7,12.1,57,0.00,,,0.00,WUHU216HW,2013-04-17 14:10:00,
2013-04-17 07:15:00,34.4,20.3,29.94,NW,315,3.4,7.4,56,0.00,,,0.00,WUHU216HW,2013-04-17 14:15:00,
2013-04-17 07:20:00,34.4,19.8,29.94,WSW,248,4.0,9.2,55,0.00,,,0.00,WUHU216HW,2013-04-17 14:20:00,
2013-04-17 07:25:00,34.6,20.0,29.94,South,180,7.6,9.2,55,0.00,,,0.00,WUHU216HW,2013-04-17 14:25:00,
2013-04-17 07:30:00,34.9,19.4,29.94,SW,225,6.3,9.2,53,0.00,,,0.00,WUHU216HW,2013-04-17 14:30:00,
2013-04-17 07:34:00,35.1,19.3,29.94,SSW,203,11.0,11.0,52,0.00,,,0.00,WUHU216HW,2013-04-17 14:34:00,
2013-04-17 07:39:00,35.3,19.5,29.94,WSW,248,6.5,11.4,52,0.00,,,0.00,WUHU216HW,2013-04-17 14:39:00,
2013-04-17 07:44:00,35.3,19.0,29.95,WNW,293,7.8,11.4,51,0.00,,,0.00,WUHU216HW,2013-04-17 14:44:00,
2013-04-17 07:49:00,35.5,19.2,29.95,West,270,8.9,11.4,51,0.00,,,0.00,WUHU216HW,2013-04-17 14:49:00,
2013-04-17 07:54:00,36.0,19.3,29.94,WSW,248,2.5,12.3,50,0.00,,,0.00,WUHU216HW,2013-04-17 14:54:00,
2013-04-17 07:59:00,36.4,19.5,29.94,SSW,203,8.7,12.3,50,0.00,,,0.00,WUHU216HW,2013-04-17 14:59:00,
2013-04-17 08:04:00,36.9,20.1,29.94,WSW,248,6.9,11.0,50,0.00,,,0.00,WUHU216HW,2013-04-17 15:04:00,
2013-04-17 08:09:00,37.4,20.0,29.94,WSW,248,6.0,8.7,49,0.00,,,0.00,WUHU216HW,2013-04-17 15:09:00,
2013-04-17 08:14:00,37.8,19.8,29.95,WSW,248,4.7,11.4,48,0.00,,,0.00,WUHU216HW,2013-04-17 15:14:00,
2013-04-17 08:19:00,38.5,19.9,29.95,WSW,248,12.1,12.1,47,0.00,,,0.00,WUHU216HW,2013-04-17 15:19:00,
2013-04-17 08:24:00,39.1,19.4,29.95,West,270,7.8,12.1,45,0.00,,,0.00,WUHU216HW,2013-04-17 15:24:00,
2013-04-17 08:30:00,40.1,19.8,29.94,NNW,338,7.2,10.5,44,0.00,,,0.00,WUHU216HW,2013-04-17 15:30:00,
2013-04-17 08:34:00,41.4,19.9,29.95,West,270,7.6,12.1,42,0.00,,,0.00,WUHU216HW,2013-04-17 15:34:00,
2013-04-17 08:39:00,41.9,20.4,29.95,WNW,293,9.4,12.1,42,0.00,,,0.00,WUHU216HW,2013-04-17 15:39:00,
2013-04-17 08:44:00,42.1,19.5,29.95,WSW,248,9.2,12.3,40,0.00,,,0.00,WUHU216HW,2013-04-17 15:44:00,
2013-04-17 08:49:00,41.9,19.4,29.95,WSW,248,5.1,12.3,40,0.00,,,0.00,WUHU216HW,2013-04-17 15:49:00,
2013-04-17 08:54:00,42.1,20.1,29.95,SSW,203,4.3,11.9,41,0.00,,,0.00,WUHU216HW,2013-04-17 15:54:00,
2013-04-17 08:59:00,42.7,20.5,29.96,WNW,293,6.3,11.2,41,0.00,,,0.00,WUHU216HW,2013-04-17 15:59:00,
2013-04-17 09:05:00,43.0,19.6,29.96,SW,225,4.7,11.4,39,0.00,,,0.00,WUHU216HW,2013-04-17 16:05:00,
2013-04-17 09:10:00,43.2,19.2,29.96,West,270,4.0,11.4,38,0.00,,,0.00,WUHU216HW,2013-04-17 16:10:00,
2013-04-17 09:14:00,43.2,19.8,29.96,WNW,293,8.9,9.8,39,0.00,,,0.00,WUHU216HW,2013-04-17 16:14:00,
2013-04-17 09:19:00,43.4,19.4,29.96,NW,315,8.3,10.7,38,0.00,,,0.00,WUHU216HW,2013-04-17 16:19:00,
2013-04-17 09:24:00,44.1,20.0,29.96,NNW,338,9.4,10.7,38,0.00,,,0.00,WUHU216HW,2013-04-17 16:24:00,
2013-04-17 09:30:00,45.0,19.4,29.96,NNW,338,6.7,11.0,36,0.00,,,0.00,WUHU216HW,2013-04-17 16:30:00,
2013-04-17 09:35:00,45.7,19.5,29.96,WNW,293,9.2,11.2,35,0.00,,,0.00,WUHU216HW,2013-04-17 16:35:00,
2013-04-17 09:40:00,45.7,19.5,29.96,WSW,248,9.8,11.2,35,0.00,,,0.00,WUHU216HW,2013-04-17 16:40:00,
2013-04-17 09:45:00,45.7,18.7,29.96,West,270,3.8,9.8,34,0.00,,,0.00,WUHU216HW,2013-04-17 16:45:00,
2013-04-17 09:50:00,45.7,15.2,29.96,NW,315,10.1,11.2,29,0.00,,,0.00,WUHU216HW,2013-04-17 16:50:00,
2013-04-17 09:54:00,46.1,18.5,29.97,West,270,5.4,11.2,33,0.00,,,0.00,WUHU216HW,2013-04-17 16:54:00,
2013-04-17 09:59:00,46.6,16.0,29.97,NNW,338,4.0,10.1,29,0.00,,,0.00,WUHU216HW,2013-04-17 16:59:00,
2013-04-17 10:04:00,46.8,15.2,29.96,NW,315,6.5,10.3,28,0.00,,,0.00,WUHU216HW,2013-04-17 17:04:00,
2013-04-17 10:09:00,46.8,16.1,29.97,West,270,5.8,12.3,29,0.00,,,0.00,WUHU216HW,2013-04-17 17:09:00,
2013-04-17 10:14:00,46.4,15.0,29.97,WSW,248,3.8,12.3,28,0.00,,,0.00,WUHU216HW,2013-04-17 17:14:00,
2013-04-17 10:20:00,46.1,15.5,29.97,West,270,2.7,9.8,29,0.00,,,0.00,WUHU216HW,2013-04-17 17:20:00,
2013-04-17 10:24:00,46.8,14.3,29.97,West,270,11.2,11.4,27,0.00,,,0.00,WUHU216HW,2013-04-17 17:24:00,
2013-04-17 10:30:00,46.3,15.7,29.97,WSW,248,4.3,11.9,29,0.00,,,0.00,WUHU216HW,2013-04-17 17:30:00,
2013-04-17 10:34:00,46.1,14.6,29.97,NW,315,6.0,11.9,28,0.00,,,0.00,WUHU216HW,2013-04-17 17:34:00,
2013-04-17 10:39:00,45.7,15.2,29.97,NNW,338,5.4,12.1,29,0.00,,,0.00,WUHU216HW,2013-04-17 17:39:00,
2013-04-17 10:45:00,45.5,14.1,29.97,WSW,248,9.4,13.2,28,0.00,,,0.00,WUHU216HW,2013-04-17 17:45:00,
2013-04-17 10:50:00,45.4,13.1,29.98,West,270,10.7,13.2,27,0.00,,,0.00,WUHU216HW,2013-04-17 17:50:00,
2013-04-17 10:55:00,45.0,13.7,29.98,NW,315,6.9,12.8,28,0.00,,,0.00,WUHU216HW,2013-04-17 17:55:00,
2013-04-17 11:00:00,44.8,12.6,29.98,WSW,248,6.9,14.5,27,0.00,,,0.00,WUHU216HW,2013-04-17 18:00:00,
2013-04-17 11:05:00,44.6,12.4,29.98,WNW,293,7.2,14.5,27,0.00,,,0.00,WUHU216HW,2013-04-17 18:05:00,
2013-04-17 11:10:00,44.6,12.4,29.98,SW,225,6.9,11.4,27,0.00,,,0.00,WUHU216HW,2013-04-17 18:10:00,
2013-04-17 11:15:00,45.0,13.7,29.98,West,270,9.2,12.3,28,0.00,,,0.00,WUHU216HW,2013-04-17 18:15:00,
2013-04-17 11:20:00,45.7,13.3,29.98,West,270,3.4,12.3,27,0.00,,,0.00,WUHU216HW,2013-04-17 18:20:00,
2013-04-17 11:25:00,46.4,13.1,29.98,WNW,293,8.5,12.8,26,0.00,,,0.00,WUHU216HW,2013-04-17 18:25:00,
2013-04-17 11:30:00,46.8,11.5,29.98,West,270,15.9,16.1,24,0.00,,,0.00,WUHU216HW,2013-04-17 18:30:00,
2013-04-17 11:35:00,46.8,11.5,29.98,SSW,203,9.2,16.1,24,0.00,,,0.00,WUHU216HW,2013-04-17 18:35:00,
2013-04-17 11:40:00,46.6,11.3,29.98,WSW,248,8.3,15.9,24,0.00,,,0.00,WUHU216HW,2013-04-17 18:40:00,
2013-04-17 11:45:00,46.4,12.2,29.98,WNW,293,6.9,13.4,25,0.00,,,0.00,WUHU216HW,2013-04-17 18:45:00,
2013-04-17 11:50:00,45.9,13.5,29.98,WNW,293,5.4,14.3,27,0.00,,,0.00,WUHU216HW,2013-04-17 18:50:00,
2013-04-17 11:55:00,45.9,11.7,29.99,WNW,293,5.4,14.3,25,0.00,,,0.00,WUHU216HW,2013-04-17 18:55:00,
2013-04-17 12:00:00,46.4,11.3,29.98,NW,315,4.7,13.2,24,0.00,,,0.00,WUHU216HW,2013-04-17 19:00:00,
2013-04-17 12:05:00,46.8,10.6,29.98,WSW,248,9.2,10.5,23,0.00,,,0.00,WUHU216HW,2013-04-17 19:05:00,
2013-04-17 12:10:00,47.0,10.8,29.98,NNW,338,10.5,10.5,23,0.00,,,0.00,WUHU216HW,2013-04-17 19:10:00,
2013-04-17 12:15:00,46.4,8.5,29.99,WNW,293,8.9,15.4,21,0.00,,,0.00,WUHU216HW,2013-04-17 19:15:00,
2013-04-17 12:20:00,45.9,9.9,29.98,West,270,2.0,15.4,23,0.00,,,0.00,WUHU216HW,2013-04-17 19:20:00,
2013-04-17 12:25:00,46.1,11.9,29.99,West,270,13.6,13.6,25,0.00,,,0.00,WUHU216HW,2013-04-17 19:25:00,
2013-04-17 12:30:00,45.2,10.2,29.99,NW,315,6.3,15.7,24,0.00,,,0.00,WUHU216HW,2013-04-17 19:30:00,
2013-04-17 12:35:00,45.0,10.9,29.99,WNW,293,9.6,15.7,25,0.00,,,0.00,WUHU216HW,2013-04-17 19:35:00,
2013-04-17 12:40:00,45.4,13.1,29.99,WSW,248,8.5,14.3,27,0.00,,,0.00,WUHU216HW,2013-04-17 19:40:00,
2013-04-17 12:45:00,45.7,11.5,30.00,WNW,293,11.2,14.1,25,0.00,,,0.00,WUHU216HW,2013-04-17 19:45:00,
2013-04-17 12:50:00,45.4,10.4,30.00,West,270,11.6,15.7,24,0.00,,,0.00,WUHU216HW,2013-04-17 19:50:00,
2013-04-17 12:55:00,45.7,10.6,29.99,West,270,7.8,15.7,24,0.00,,,0.00,WUHU216HW,2013-04-17 19:55:00,
2013-04-17 13:00:00,46.8,11.5,29.99,NW,315,7.2,15.7,24,0.00,,,0.00,WUHU216HW,2013-04-17 20:00:00,
2013-04-17 13:05:00,47.3,11.1,29.99,WSW,248,9.8,15.7,23,0.00,,,0.00,WUHU216HW,2013-04-17 20:05:00,
2013-04-17 13:10:00,47.7,12.3,30.00,WNW,293,9.6,13.9,24,0.00,,,0.00,WUHU216HW,2013-04-17 20:10:00,
2013-04-17 13:15:00,48.1,11.7,30.00,West,270,8.9,11.0,23,0.00,,,0.00,WUHU216HW,2013-04-17 20:15:00,
2013-04-17 13:20:00,48.6,12.2,30.00,West,270,4.0,11.0,23,0.00,,,0.00,WUHU216HW,2013-04-17 20:20:00,
2013-04-17 13:25:00,49.0,10.6,30.00,West,270,10.7,11.6,21,0.00,,,0.00,WUHU216HW,2013-04-17 20:25:00,
2013-04-17 13:30:00,48.4,11.1,30.00,WSW,248,6.0,11.6,22,0.00,,,0.00,WUHU216HW,2013-04-17 20:30:00,
2013-04-17 13:35:00,47.9,8.7,30.00,NW,315,6.3,14.5,20,0.00,,,0.00,WUHU216HW,2013-04-17 20:35:00,
2013-04-17 13:40:00,47.7,10.5,30.00,NNW,338,2.5,14.5,22,0.00,,,0.00,WUHU216HW,2013-04-17 20:40:00,
2013-04-17 13:45:00,48.2,9.9,30.00,West,270,9.2,13.9,21,0.00,,,0.00,WUHU216HW,2013-04-17 20:45:00,
2013-04-17 13:50:00,48.2,9.9,30.01,WNW,293,17.4,17.4,21,0.00,,,0.00,WUHU216HW,2013-04-17 20:50:00,
2013-04-17 13:55:00,47.9,9.6,30.01,North,0,14.3,17.4,21,0.00,,,0.00,WUHU216HW,2013-04-17 20:55:00,
2013-04-17 14:00:00,47.0,9.8,30.01,NW,315,10.7,17.4,22,0.00,,,0.00,WUHU216HW,2013-04-17 21:00:00,
2013-04-17 14:05:00,47.2,10.0,30.01,SSW,203,8.3,14.3,22,0.00,,,0.00,WUHU216HW,2013-04-17 21:05:00,
2013-04-17 14:10:00,47.3,9.2,30.00,NW,315,10.1,14.8,21,0.00,,,0.00,WUHU216HW,2013-04-17 21:10:00,
2013-04-17 14:15:00,47.3,10.2,30.00,WSW,248,7.2,14.8,22,0.00,,,0.00,WUHU216HW,2013-04-17 21:15:00,
2013-04-17 14:20:00,47.0,9.8,30.00,NNW,338,7.8,12.3,22,0.00,,,0.00,WUHU216HW,2013-04-17 21:20:00,
2013-04-17 14:25:00,46.6,9.5,30.01,West,270,12.8,13.4,22,0.00,,,0.00,WUHU216HW,2013-04-17 21:25:00,
2013-04-17 14:30:00,46.4,9.4,30.01,West,270,11.4,16.6,22,0.00,,,0.00,WUHU216HW,2013-04-17 21:30:00,
2013-04-17 14:35:00,46.4,9.4,30.01,NW,315,15.9,16.6,22,0.00,,,0.00,WUHU216HW,2013-04-17 21:35:00,
2013-04-17 14:40:00,46.8,9.7,30.01,West,270,12.3,16.6,22,0.00,,,0.00,WUHU216HW,2013-04-17 21:40:00,
2013-04-17 14:45:00,46.6,10.4,30.01,WNW,293,14.3,16.6,23,0.00,,,0.00,WUHU216HW,2013-04-17 21:45:00,
2013-04-17 14:50:00,46.3,12.0,30.01,NNW,338,13.2,16.6,25,0.00,,,0.00,WUHU216HW,2013-04-17 21:50:00,
2013-04-17 14:55:00,46.1,11.9,30.01,West,270,10.3,14.8,25,0.00,,,0.00,WUHU216HW,2013-04-17 21:55:00,
2013-04-17 15:00:00,45.9,10.8,30.01,WNW,293,12.1,16.1,24,0.00,,,0.00,WUHU216HW,2013-04-17 22:00:00,
2013-04-17 15:05:00,46.3,9.3,30.01,NW,315,12.1,16.1,22,0.00,,,0.00,WUHU216HW,2013-04-17 22:05:00,
2013-04-17 15:10:00,46.1,10.0,30.01,WNW,293,10.3,16.3,23,0.00,,,0.00,WUHU216HW,2013-04-17 22:10:00,
2013-04-17 15:15:00,46.4,11.3,30.01,WNW,293,4.5,16.3,24,0.00,,,0.00,WUHU216HW,2013-04-17 22:15:00,
2013-04-17 15:20:00,46.4,11.3,30.01,NNW,338,13.0,16.3,24,0.00,,,0.00,WUHU216HW,2013-04-17 22:20:00,
2013-04-17 15:25:00,45.9,13.5,30.01,NW,315,10.3,16.3,27,0.00,,,0.00,WUHU216HW,2013-04-17 22:25:00,
2013-04-17 15:30:00,45.0,12.7,30.02,NNW,338,7.2,16.6,27,0.00,,,0.00,WUHU216HW,2013-04-17 22:30:00,
2013-04-17 15:35:00,44.3,10.3,30.02,West,270,5.1,16.6,25,0.00,,,0.00,WUHU216HW,2013-04-17 22:35:00,
2013-04-17 15:40:00,44.3,10.3,30.02,North,0,5.4,13.0,25,0.00,,,0.00,WUHU216HW,2013-04-17 22:40:00,
2013-04-17 15:45:00,45.0,12.7,30.02,WNW,293,13.6,15.2,27,0.00,,,0.00,WUHU216HW,2013-04-17 22:45:00,
2013-04-17 15:50:00,45.4,11.3,30.02,WNW,293,8.3,15.2,25,0.00,,,0.00,WUHU216HW,2013-04-17 22:50:00,
2013-04-17 15:55:00,45.0,10.0,30.02,NNW,338,9.4,13.6,24,0.00,,,0.00,WUHU216HW,2013-04-17 22:55:00,
2013-04-17 16:00:00,44.3,7.6,30.03,WSW,248,8.5,13.6,22,0.00,,,0.00,WUHU216HW,2013-04-17 23:00:00,
2013-04-17 16:05:00,43.7,8.0,30.03,SW,225,4.7,13.6,23,0.00,,,0.00,WUHU216HW,2013-04-17 23:05:00,
2013-04-17 16:10:00,44.3,9.4,30.03,West,270,11.0,14.3,24,0.00,,,0.00,WUHU216HW,2013-04-17 23:10:00,
2013-04-17 16:15:00,44.5,9.5,30.03,NW,315,7.6,14.5,24,0.00,,,0.00,WUHU216HW,2013-04-17 23:15:00,
2013-04-17 16:20:00,44.6,9.7,30.02,West,270,5.6,14.5,24,0.00,,,0.00,WUHU216HW,2013-04-17 23:20:00,
2013-04-17 16:25:00,44.6,10.6,30.03,NW,315,3.6,13.9,25,0.00,,,0.00,WUHU216HW,2013-04-17 23:25:00,
2013-04-17 16:30:00,44.6,10.6,30.03,WNW,293,4.3,13.9,25,0.00,,,0.00,WUHU216HW,2013-04-17 23:30:00,
2013-04-17 16:35:00,45.0,10.0,30.03,NE,45,2.5,12.1,24,0.00,,,0.00,WUHU216HW,2013-04-17 23:35:00,
2013-04-17 16:40:00,45.0,10.9,30.03,WNW,293,6.3,12.1,25,0.00,,,0.00,WUHU216HW,2013-04-17 23:40:00,
2013-04-17 16:45:00,45.0,10.0,30.04,West,270,9.8,12.1,24,0.00,,,0.00,WUHU216HW,2013-04-17 23:45:00,
2013-04-17 16:50:00,44.6,10.6,30.04,WNW,293,11.6,18.8,25,0.00,,,0.00,WUHU216HW,2013-04-17 23:50:00,
2013-04-17 16:55:00,43.6,9.6,30.05,NW,315,10.3,19.0,25,0.00,,,0.00,WUHU216HW,2013-04-17 23:55:00,
2013-04-17 17:00:00,42.8,9.0,30.05,NNW,338,6.9,19.0,25,0.00,,,0.00,WUHU216HW,2013-04-18 00:00:00,
2013-04-17 17:05:00,42.8,9.0,30.05,NW,315,5.4,10.3,25,0.00,,,0.00,WUHU216HW,2013-04-18 00:05:00,
2013-04-17 17:10:00,42.5,7.8,30.05,NNW,338,6.9,10.3,24,0.00,,,0.00,WUHU216HW,2013-04-18 00:10:00,
2013-04-17 17:15:00,42.8,8.1,30.05,NW,315,3.6,10.3,24,0.00,,,0.00,WUHU216HW,2013-04-18 00:15:00,
2013-04-17 17:20:00,42.7,9.7,30.06,NNW,338,7.6,8.7,26,0.00,,,0.00,WUHU216HW,2013-04-18 00:20:00,
2013-04-17 17:25:00,42.1,11.2,30.05,NW,315,7.2,14.8,28,0.00,,,0.00,WUHU216HW,2013-04-18 00:25:00,
2013-04-17 17:30:00,41.8,9.9,30.05,NNW,338,4.0,14.8,27,0.00,,,0.00,WUHU216HW,2013-04-18 00:30:00,
2013-04-17 17:35:00,42.1,10.3,30.05,NNW,338,4.7,9.8,27,0.00,,,0.00,WUHU216HW,2013-04-18 00:35:00,
2013-04-17 17:40:00,42.3,10.4,30.05,NW,315,4.7,10.3,27,0.00,,,0.00,WUHU216HW,2013-04-18 00:40:00,
2013-04-17 17:45:00,42.1,10.3,30.05,NNW,338,1.8,10.3,27,0.00,,,0.00,WUHU216HW,2013-04-18 00:45:00,
2013-04-17 17:50:00,42.1,10.3,30.05,WNW,293,5.4,7.8,27,0.00,,,0.00,WUHU216HW,2013-04-18 00:50:00,
2013-04-17 17:55:00,42.1,10.3,30.04,WSW,248,0.4,5.4,27,0.00,,,0.00,WUHU216HW,2013-04-18 00:55:00,
2013-04-17 18:00:00,42.3,10.4,30.05,North,0,2.7,5.4,27,0.00,,,0.00,WUHU216HW,2013-04-18 01:00:00,
2013-04-17 18:05:00,42.5,7.8,30.06,WNW,293,4.9,6.9,24,0.00,,,0.00,WUHU216HW,2013-04-18 01:05:00,
2013-04-17 18:10:00,42.5,10.5,30.06,North,0,4.3,12.3,27,0.00,,,0.00,WUHU216HW,2013-04-18 01:10:00,
2013-04-17 18:15:00,42.1,12.1,30.06,NNW,338,5.1,12.3,29,0.00,,,0.00,WUHU216HW,2013-04-18 01:15:00,
2013-04-17 18:20:00,41.4,13.0,30.06,NNW,338,6.9,9.2,31,0.00,,,0.00,WUHU216HW,2013-04-18 01:20:00,
2013-04-17 18:25:00,40.9,13.2,30.07,NNE,23,4.7,6.9,32,0.00,,,0.00,WUHU216HW,2013-04-18 01:25:00,
2013-04-17 18:30:00,40.1,13.2,30.07,NNE,23,4.3,6.9,33,0.00,,,0.00,WUHU216HW,2013-04-18 01:30:00,
2013-04-17 18:35:00,39.6,14.7,30.07,North,0,2.5,6.9,36,0.00,,,0.00,WUHU216HW,2013-04-18 01:35:00,
2013-04-17 18:40:00,38.9,15.3,30.07,NNE,23,3.8,8.1,38,0.00,,,0.00,WUHU216HW,2013-04-18 01:40:00,
2013-04-17 18:45:00,38.3,14.9,30.07,NNE,23,1.8,8.1,38,0.00,,,0.00,WUHU216HW,2013-04-18 01:45:00,
2013-04-17 18:50:00,38.2,15.3,30.08,North,0,3.4,5.1,39,0.00,,,0.00,WUHU216HW,2013-04-18 01:50:00,
2013-04-17 18:55:00,37.8,15.7,30.08,NE,45,5.6,5.6,40,0.00,,,0.00,WUHU216HW,2013-04-18 01:55:00,
2013-04-17 19:00:00,37.3,15.1,30.08,North,0,2.2,5.6,40,0.00,,,0.00,WUHU216HW,2013-04-18 02:00:00,
2013-04-17 19:05:00,37.1,16.0,30.08,North,0,7.6,7.6,42,0.00,,,0.00,WUHU216HW,2013-04-18 02:05:00,
2013-04-17 19:10:00,36.7,15.2,30.08,North,0,2.0,7.6,41,0.00,,,0.00,WUHU216HW,2013-04-18 02:10:00,
2013-04-17 19:15:00,36.4,15.9,30.08,NE,45,3.6,6.3,43,0.00,,,0.00,WUHU216HW,2013-04-18 02:15:00,
2013-04-17 19:20:00,36.0,16.1,30.09,North,0,2.7,6.3,44,0.00,,,0.00,WUHU216HW,2013-04-18 02:20:00,
2013-04-17 19:25:00,35.8,14.9,30.09,NE,45,2.2,6.3,42,0.00,,,0.00,WUHU216HW,2013-04-18 02:25:00,
2013-04-17 19:30:00,35.6,14.8,30.09,North,0,6.9,8.5,42,0.00,,,0.00,WUHU216HW,2013-04-18 02:30:00,
2013-04-17 19:35:00,35.3,15.0,30.09,North,0,4.7,8.5,43,0.00,,,0.00,WUHU216HW,2013-04-18 02:35:00,
2013-04-17 19:40:00,35.1,14.8,30.09,NNW,338,3.8,8.5,43,0.00,,,0.00,WUHU216HW,2013-04-18 02:40:00,
2013-04-17 19:45:00,35.1,15.3,30.09,NNW,338,5.6,8.5,44,0.00,,,0.00,WUHU216HW,2013-04-18 02:45:00,
2013-04-17 19:50:00,34.9,15.1,30.09,NNW,338,2.0,6.3,44,0.00,,,0.00,WUHU216HW,2013-04-18 02:50:00,
2013-04-17 19:55:00,34.9,14.6,30.10,North,0,2.7,6.3,43,0.00,,,0.00,WUHU216HW,2013-04-18 02:55:00,
2013-04-17 20:00:00,34.7,14.4,30.10,North,0,3.1,6.3,43,0.00,,,0.00,WUHU216HW,2013-04-18 03:00:00,
2013-04-17 20:05:00,34.7,13.9,30.10,NNW,338,1.8,4.9,42,0.00,,,0.00,WUHU216HW,2013-04-18 03:05:00,
2013-04-17 20:10:00,34.6,13.8,30.10,NW,315,1.1,4.0,42,0.00,,,0.00,WUHU216HW,2013-04-18 03:10:00,
2013-04-17 20:15:00,34.4,13.1,30.11,NW,315,0.4,4.0,41,0.00,,,0.00,WUHU216HW,2013-04-18 03:15:00,
2013-04-17 20:20:00,34.2,12.9,30.11,South,180,2.5,2.5,41,0.00,,,0.00,WUHU216HW,2013-04-18 03:20:00,
2013-04-17 20:25:00,34.0,12.7,30.11,SSE,158,2.5,2.9,41,0.00,,,0.00,WUHU216HW,2013-04-18 03:25:00,
2013-04-17 20:30:00,33.8,12.6,30.12,SSE,158,1.3,2.9,41,0.00,,,0.00,WUHU216HW,2013-04-18 03:30:00,
2013-04-17 20:35:00,33.5,12.2,30.12,SE,135,2.9,2.9,41,0.00,,,0.00,WUHU216HW,2013-04-18 03:35:00,
2013-04-17 20:40:00,32.9,11.8,30.12,SE,135,0.7,2.9,41,0.00,,,0.00,WUHU216HW,2013-04-18 03:40:00,
2013-04-17 20:45:00,32.6,12.0,30.13,South,180,1.6,2.9,42,0.00,,,0.00,WUHU216HW,2013-04-18 03:45:00,
2013-04-17 20:50:00,32.2,11.6,30.13,South,180,2.7,2.7,42,0.00,,,0.00,WUHU216HW,2013-04-18 03:50:00,
2013-04-17 20:55:00,31.7,11.2,30.13,NW,315,0.0,2.7,42,0.00,,,0.00,WUHU216HW,2013-04-18 03:55:00,
2013-04-17 21:00:00,31.3,10.8,30.13,SW,225,1.1,2.7,42,0.00,,,0.00,WUHU216HW,2013-04-18 04:00:00,
2013-04-17 21:01:00,31.3,10.8,30.13,SW,225,0.2,2.5,42,0.00,,,0.00,WUHU216HW,2013-04-18 04:01:00,
2013-04-17 21:02:00,31.1,10.6,30.13,South,180,0.0,1.8,42,0.00,,,0.00,WUHU216HW,2013-04-18 04:02:00,
2013-04-17 21:07:00,30.8,10.8,30.13,SSW,203,2.5,3.1,43,0.00,,,0.00,WUHU216HW,2013-04-18 04:07:00,
2013-04-17 21:12:00,30.6,10.6,30.14,WSW,248,0.7,3.1,43,0.00,,,0.00,WUHU216HW,2013-04-18 04:12:00,
2013-04-17 21:17:00,30.2,10.8,30.13,ENE,68,2.5,2.5,44,0.00,,,0.00,WUHU216HW,2013-04-18 04:17:00,
2013-04-17 21:22:00,29.9,10.0,30.14,ESE,113,0.4,2.5,43,0.00,,,0.00,WUHU216HW,2013-04-18 04:22:00,
2013-04-17 21:27:00,29.7,10.4,30.14,SW,225,1.1,2.5,44,0.00,,,0.00,WUHU216HW,2013-04-18 04:27:00,
2013-04-17 21:32:00,29.5,9.7,30.14,NW,315,2.2,3.4,43,0.00,,,0.00,WUHU216HW,2013-04-18 04:32:00,
2013-04-17 21:37:00,29.5,9.7,30.14,South,180,1.1,3.4,43,0.00,,,0.00,WUHU216HW,2013-04-18 04:37:00,
2013-04-17 21:42:00,29.5,9.7,30.14,SSW,203,0.2,2.2,43,0.00,,,0.00,WUHU216HW,2013-04-18 04:42:00,
2013-04-17 21:47:00,29.2,9.4,30.14,SW,225,2.0,2.5,43,0.00,,,0.00,WUHU216HW,2013-04-18 04:47:00,
2013-04-17 21:52:00,29.2,8.8,30.14,NW,315,3.4,5.8,42,0.00,,,0.00,WUHU216HW,2013-04-18 04:52:00,
2013-04-17 21:57:00,29.9,9.0,30.14,NNW,338,4.5,5.8,41,0.00,,,0.00,WUHU216HW,2013-04-18 04:57:00,
2013-04-17 22:02:00,30.6,8.6,30.14,North,0,5.1,8.7,39,0.00,,,0.00,WUHU216HW,2013-04-18 05:02:00,
2013-04-17 22:07:00,31.5,9.4,30.14,NW,315,4.7,10.3,39,0.00,,,0.00,WUHU216HW,2013-04-18 05:07:00,
2013-04-17 22:12:00,31.7,8.8,30.14,NW,315,3.1,10.3,38,0.00,,,0.00,WUHU216HW,2013-04-18 05:12:00,
2013-04-17 22:17:00,31.9,9.0,30.14,North,0,0.9,5.8,38,0.00,,,0.00,WUHU216HW,2013-04-18 05:17:00,
2013-04-17 22:22:00,31.9,8.4,30.15,NE,45,3.8,5.4,37,0.00,,,0.00,WUHU216HW,2013-04-18 05:22:00,
2013-04-17 22:27:00,31.9,8.4,30.15,North,0,3.4,5.8,37,0.00,,,0.00,WUHU216HW,2013-04-18 05:27:00,
2013-04-17 22:32:00,31.7,8.8,30.15,NNE,23,4.7,5.8,38,0.00,,,0.00,WUHU216HW,2013-04-18 05:32:00,
2013-04-17 22:37:00,31.5,8.7,30.15,NNW,338,2.2,5.8,38,0.00,,,0.00,WUHU216HW,2013-04-18 05:37:00,
2013-04-17 22:42:00,31.3,8.6,30.15,North,0,1.1,4.3,38,0.00,,,0.00,WUHU216HW,2013-04-18 05:42:00,
2013-04-17 22:47:00,31.1,9.0,30.16,NNE,23,2.0,4.3,39,0.00,,,0.00,WUHU216HW,2013-04-18 05:47:00,
2013-04-17 22:52:00,31.0,8.8,30.16,NNE,23,1.1,4.3,39,0.00,,,0.00,WUHU216HW,2013-04-18 05:52:00,
2013-04-17 22:57:00,30.6,8.6,30.16,NNE,23,1.8,3.1,39,0.00,,,0.00,WUHU216HW,2013-04-18 05:57:00,
2013-04-17 23:02:00,30.6,9.2,30.16,NE,45,0.7,2.9,40,0.00,,,0.00,WUHU216HW,2013-04-18 06:02:00,
2013-04-17 23:07:00,30.2,8.8,30.16,NNE,23,0.4,2.5,40,0.00,,,0.00,WUHU216HW,2013-04-18 06:07:00,
2013-04-17 23:12:00,29.9,9.0,30.16,ENE,68,0.7,3.4,41,0.00,,,0.00,WUHU216HW,2013-04-18 06:12:00,
2013-04-17 23:17:00,29.7,8.8,30.16,NE,45,0.7,3.8,41,0.00,,,0.00,WUHU216HW,2013-04-18 06:17:00,
2013-04-17 23:22:00,29.5,9.2,30.16,NNE,23,0.0,3.8,42,0.00,,,0.00,WUHU216HW,2013-04-18 06:22:00,
2013-04-17 23:27:00,29.2,8.8,30.16,NNE,23,3.6,3.8,42,0.00,,,0.00,WUHU216HW,2013-04-18 06:27:00,
2013-04-17 23:32:00,29.2,9.4,30.16,NNW,338,1.8,5.1,43,0.00,,,0.00,WUHU216HW,2013-04-18 06:32:00,
2013-04-17 23:37:00,29.2,9.9,30.16,NE,45,2.2,5.1,44,0.00,,,0.00,WUHU216HW,2013-04-18 06:37:00,
2013-04-17 23:42:00,28.8,9.0,30.16,NNE,23,1.1,3.8,43,0.00,,,0.00,WUHU216HW,2013-04-18 06:42:00,
2013-04-17 23:47:00,28.8,9.0,30.16,North,0,0.9,2.5,43,0.00,,,0.00,WUHU216HW,2013-04-18 06:47:00,
2013-04-17 23:52:00,28.6,8.9,30.16,North,0,0.7,2.5,43,0.00,,,0.00,WUHU216HW,2013-04-18 06:52:00,
2013-04-17 23:57:00,28.4,8.7,30.16,NNW,338,0.7,2.0,43,0.00,,,0.00,WUHU216HW,2013-04-18 06:57:00,